Zurück zum Katalog

FENGYUN 1C DEB

AktivSSO
NORAD 33701·DEBRIS·🇨🇳 China

Gestartet May 10, 1999 von Taiyuan Satellite Launch Center

Loading…

Nächste Überflüge (nächste 24 Stunden)

TLE

AktuellSource: Space-Track

Epoche: Sep 13, 2026, 06:47 UTC

1 33701U 99025DGN 26256.28325962  .00001780  00000-0  10769-2 0  9998
2 33701  98.6748 202.7926 0131201 137.2171 223.9298 14.03474702943559

Verfolge FENGYUN 1C DEB in Echtzeit mit AllMySat

Download on the App Store